Aérodrome :
LOGIN :

S'inscrire | Disclaimer

   EN    FR    IT 

 










Légende :    VFR   VFR Marginal   IFR   IFR Intensif   IFR Très Intensif
Visi : 
Plafond : 
>= 8 km
>= 3000ft
5 à 8 km
1000 à 3000 ft
1500m à 5 km
500 à 1000 ft
800 à 1500m
200 à 500 ft
< 800m
< 200 ft
Symboles :   Orages  Brouillard  Fortes neiges  Fortes précipitations  Vent > 20 kt
SIGMETs :   Divers  Orages  Givrage  Turbulence  Onde Orograph.  Cendres Volcan.






- Altitude de l'aérodrome : 239 ft
- Code IATA : VRN


LIPX - Villafranca Int. Verona

DERNIER METAR :
  • 240350Z AUTO 33002KT 9999 BKN170/// M00/M02 Q1028

METARs EXPIRÉS :
  • 240320Z AUTO 33002KT 9999 BKN180/// M00/M02 Q1028
  • 240250Z AUTO VRB01KT 9999 BKN170/// 00/M01 Q1028
  • 240220Z AUTO VRB02KT 9999 BKN180/// 01/M01 Q1028
  • 240150Z AUTO 29005KT 9999 SCT210/// 00/M02 Q1028
  • 240120Z AUTO 33004KT 9999 BKN210/// 02/M01 Q1028

TAF TAF LIPX
Valide du 24 à 03h jusqu'au 24 à 12h UTC


240200Z 2403/2412 VRB05KT CAVOK



MET'MAP, la Météo Aéronautique d'un coup d'oeil ! - Copyright ORBIFLY Décembre 2007 - Disclaimer

ORBIFLY MET'MAP TEAM :

Programmation & Développement : Alexandra Zaïnal
Sur une idée originale de : Baudouin d'Aumeries
Assistance à la programmation : Marc-Olivier Méhu
Soutien technique & logistique : Manuel Goepfert

Contact : metmap@orbifly.com




SOURCES & CREDITS :

   NOAA